Погода в Думъяте

Египет     31°25′40″N   31°48′40″E
темп.,
°C
ветер,
м/с
пор.,
м/с
влажн.,
%
обл.,
%
осадки,
мм/ч
давл.,
гПа
погр.,
м
20 июня, вс
вс2023:00+24сз33630 0.0 1012442
02:00+24ссв11640 0.0 1011242
05:00+23юв11660 0.0 1011240
08:00+24з11590 0.0 1012483
11:00+25ссз43560 0.0 1012559
14:00+26ссз45510 0.0 1011509
17:00+26ссз44530 0.0 1011429
20:00+25ссз34590 0.0 1012344
21 июня, пн
пн2123:00+25сз23620 0.0 1012315
02:00+24зсз22630 0.0 1011270
05:00+24зюз22640 0.0 1011191
08:00+25зсз22580 0.0 1012362
11:00+26с33560 0.0 1012458
14:00+26ссз67610 0.0 1012484
17:00+26ссз68690 0.0 1012517
20:00+25с46720 0.0 1012418
22 июня, вт
вт2223:00+25с34710 0.0 1013382
02:00+24ссз12700 0.0 1012333
05:00+24зсз23690 0.0 1012331
08:00+25сз44650 0.0 1013475
11:00+26сз56620 0.0 1013492
14:00+26ссз67640 0.0 1013579
17:00+26с56690 0.0 1013599
20:00+25с46730 0.0 1013481
23 июня, ср
ср2323:00+24ссз45720 0.0 1013376
02:00+24ссз23700 0.0 1013360
05:00+24сз23710 0.0 1012311
08:00+25с12640 0.0 1013409
11:00+26с32590 0.0 1013428
14:00+26с55600 0.0 1012482
17:00+26ссз56680 0.0 1012444
20:00+25ссз45740 0.0 1012321
24 июня, чт
чт2423:00+25ссз23750 0.0 1013262
02:00+25сз22740 0.0 1012235
05:00+24ссз23750 0.0 1011267
08:00+25ссв11680 0.0 1012271
11:00+27ссв22610 0.0 1012384
14:00+27с44580 0.0 1010368
17:00+27с55680 0.0 1010326
20:00+26с45750 0.0 1010208